Location: Im Fang
(46.6019°N, 7.2397°E)
Time: 04:02:34
(UTC+00:00)

Envisat - Pass Details

Date: 10 March 2021
Orbit: 764 x 766 km, 98.1° (Epoch: 18 April)

Event Time Altitude Azimuth Distance (km) Brightness Sun altitude
Rises 03:58:37 0° 28° (NNE) 3,243 6.9 -20.4°
Reaches altitude 10° 04:01:41 10° 47° (NE) 2,311 6.4 -19.9°
Maximum altitude 04:05:06 18° 90° (E) 1,815 5.9 -19.3°
Drops below altitude 10° 04:08:31 10° 132° (SE) 2,298 5.9 -18.7°
Sets 04:11:32 0° 151° (SSE) 3,218 6.4 -18.2°
